EW1458 Weather Reports


Display with metric or nautical units.
time (UTC)temp
F
wind
direction
speed
MPH
gust
MPH
rain 1hr
in
rain 24hr
in
rain mn
in
humidity
%
barometer
mb
20260508034408 43 299 0.0 1.0 0.00 0.59 0.00 94 1002.6
20260508033905 43 12 0.0 2.0 0.00 0.59 0.00 94 1002.7
20260508033353 43 120 0.0 2.0 0.00 0.59 0.00 94 1002.8
20260508032847 43 123 1.0 2.0 0.00 0.59 0.00 94 1002.5
20260508032345 43 51 0.0 2.0 0.00 0.59 0.00 93 1002.3
20260508031845 43 121 1.0 3.0 0.00 0.59 0.00 93 1002.0
20260508031345 44 184 1.0 3.0 0.00 0.59 0.00 94 1002.3
20260508030344 43 302 2.0 4.0 0.00 0.59 0.00 93 1002.5
20260508025340 44 330 0.0 2.0 0.00 0.59 0.59 92 1002.4
20260508024839 44 205 0.0 2.0 0.00 0.59 0.59 91 1002.6
20260508024339 44 187 0.0 1.0 0.00 0.59 0.59 90 1002.5
20260508023839 45 117 1.0 2.0 0.00 0.59 0.59 89 1002.5
20260508023339 45 234 1.0 2.0 0.00 0.59 0.59 90 1002.6
20260508022838 45 311 0.0 2.0 0.00 0.59 0.59 91 1002.6
20260508022335 45 257 0.0 2.0 0.00 0.59 0.59 92 1002.8
20260508021834 45 9 0.0 2.0 0.00 0.59 0.59 92 1002.6
20260508021336 45 6 1.0 2.0 0.00 0.59 0.59 92 1002.6
20260508020830 45 49 1.0 2.0 0.00 0.59 0.59 91 1002.7
20260508020329 46 58 2.0 2.0 0.00 0.59 0.59 89 1002.6
20260508015825 46 104 0.0 1.0 0.00 0.59 0.59 87 1002.7
20260508015326 46 22 0.0 1.0 0.00 0.59 0.59 88 1002.6
20260508013323 47 284 0.0 2.0 0.00 0.59 0.59 87 1002.5
20260508012821 47 255 0.0 2.0 0.00 0.59 0.59 87 1002.7
20260508012320 47 304 0.0 2.0 0.00 0.59 0.59 87 1002.8
20260508011817 47 299 0.0 2.0 0.00 0.59 0.59 87 1002.7
20260508011317 47 292 0.0 2.0 0.00 0.59 0.59 86 1002.4
20260508010816 48 122 0.0 1.0 0.00 0.59 0.59 85 1002.6
20260508010315 48 72 1.0 2.0 0.00 0.59 0.59 85 1002.4
20260508005815 48 272 0.0 3.0 0.00 0.59 0.59 84 1002.6
20260508005314 48 177 0.0 3.0 0.00 0.59 0.59 84 1002.4
20260508004306 49 276 2.0 4.0 0.00 0.59 0.59 83 1002.3
20260508003805 49 253 1.0 5.0 0.00 0.59 0.59 83 1002.4
20260508003305 49 293 1.0 5.0 0.00 0.59 0.59 82 1002.2
20260508002306 49 239 3.0 6.0 0.00 0.59 0.59 82 1002.3
20260508001803 50 307 1.0 6.0 0.00 0.59 0.59 81 1002.4
20260508001301 50 248 4.0 8.0 0.00 0.59 0.59 81 1002.4
20260508000801 50 232 3.0 8.0 0.00 0.59 0.59 81 1002.2
20260508000258 50 230 3.0 11.0 0.00 0.59 0.59 81 1002.0
20260507235757 50 270 5.0 11.0 0.00 0.59 0.59 81 1002.1
20260507235257 51 230 5.0 9.0 0.00 0.59 0.59 80 1002.0
20260507234757 51 249 4.0 10.0 0.00 0.59 0.59 80 1002.2
20260507234255 51 235 5.0 10.0 0.00 0.59 0.59 80 1001.9
20260507233254 51 246 6.0 12.0 0.00 0.59 0.59 79 1002.2
20260507232753 51 247 7.0 9.0 0.00 0.59 0.59 79 1001.9
20260507231753 52 231 6.0 13.0 0.00 0.59 0.59 77 1001.8
20260507230249 53 282 4.0 12.0 0.00 0.59 0.59 75 1001.2
20260507225747 54 225 7.0 11.0 0.00 0.59 0.59 73 1001.3
20260507225245 54 238 4.0 11.0 0.00 0.59 0.59 72 1001.5
20260507224746 55 307 4.0 11.0 0.00 0.59 0.59 72 1001.3
20260507224244 55 241 4.0 12.0 0.00 0.59 0.59 70 1001.3
20260507223743 56 221 8.0 12.0 0.00 0.59 0.59 67 1001.5
20260507223256 57 253 6.0 11.0 0.00 0.59 0.59 64 1001.6
20260507222754 57 203 5.0 11.0 0.00 0.59 0.59 62 1001.3
20260507222252 57 283 5.0 9.0 0.00 0.59 0.59 58 1001.2
20260507221738 58 282 3.0 8.0 0.00 0.59 0.59 58 1001.4
20260507221234 58 295 5.0 10.0 0.00 0.59 0.59 57 1001.3
20260507220735 58 311 4.0 10.0 0.00 0.59 0.59 56 1001.2
20260507220230 58 291 7.0 12.0 0.00 0.59 0.59 56 1001.3
20260507215732 58 290 5.0 13.0 0.00 0.59 0.59 57 1001.5
20260507215230 58 311 6.0 13.0 0.00 0.59 0.59 57 1001.2
20260507214731 59 269 6.0 13.0 0.00 0.59 0.59 59 1001.4
20260507214230 58 259 5.0 13.0 0.00 0.59 0.59 59 1001.3
20260507213231 59 297 5.0 10.0 0.00 0.59 0.59 58 1001.3
20260507212229 59 266 5.0 12.0 0.00 0.59 0.59 59 1001.3
20260507211729 59 274 3.0 12.0 0.00 0.59 0.59 61 1001.2
20260507210727 59 217 6.0 12.0 0.00 0.59 0.59 57 1001.3
20260507210227 59 253 5.0 13.0 0.00 0.59 0.59 62 1001.5
20260507205727 59 262 6.0 13.0 0.00 0.59 0.59 59 1001.3
20260507205227 58 279 4.0 13.0 0.00 0.59 0.59 63 1000.9
20260507204728 58 241 4.0 13.0 0.00 0.59 0.59 62 1001.0
20260507204227 58 203 4.0 13.0 0.00 0.59 0.59 63 1001.1
20260507203727 59 243 6.0 11.0 0.00 0.59 0.59 60 1001.0
20260507203224 59 283 3.0 12.0 0.00 0.59 0.59 63 1001.1
20260507202723 58 233 3.0 12.0 0.00 0.59 0.59 63 1000.8
20260507201733 59 238 2.0 13.0 0.00 0.59 0.59 60 1001.1
20260507201221 58 272 4.0 14.0 0.00 0.59 0.59 67 1001.1
20260507200718 58 256 9.0 14.0 0.00 0.59 0.59 65 1001.0
20260507200218 58 260 9.0 13.0 0.00 0.59 0.59 69 1000.9
20260507195718 59 240 4.0 12.0 0.00 0.59 0.59 67 1001.1
20260507194709 58 252 12.0 15.0 0.00 0.59 0.59 68 1001.2
20260507194205 58 187 7.0 13.0 0.00 0.59 0.59 72 1001.2
20260507193704 57 205 3.0 11.0 0.00 0.59 0.59 73 1001.0
20260507193205 58 237 7.0 11.0 0.00 0.59 0.59 71 1001.2
20260507192703 57 262 7.0 15.0 0.00 0.59 0.59 74 1001.0
20260507192201 57 253 9.0 15.0 0.00 0.59 0.59 72 1001.1
20260507191658 57 251 6.0 15.0 0.00 0.59 0.59 76 1001.2
20260507191155 56 239 7.0 13.0 0.00 0.59 0.59 79 1001.1
20260507190153 56 243 5.0 12.0 0.00 0.59 0.59 78 1001.1
20260507185653 56 232 4.0 12.0 0.00 0.59 0.59 82 1001.3
20260507185153 56 212 1.0 10.0 0.00 0.59 0.59 83 1001.3
20260507184653 55 254 6.0 10.0 0.00 0.59 0.59 82 1001.0
20260507184153 54 260 5.0 9.0 0.00 0.59 0.59 84 1001.1
20260507183652 54 265 2.0 10.0 0.00 0.59 0.59 85 1001.1
20260507183152 54 258 8.0 10.0 0.00 0.59 0.59 85 1001.3
20260507182653 54 182 3.0 5.0 0.00 0.59 0.59 86 1001.0
20260507181655 54 220 3.0 8.0 0.00 0.59 0.59 87 1001.6
20260507181203 53 283 4.0 9.0 0.00 0.59 0.59 84 1001.5
20260507180646 53 231 3.0 9.0 0.00 0.59 0.59 86 1001.7
20260507180144 53 263 4.0 9.0 0.00 0.59 0.59 86 1001.5
20260507175645 53 249 5.0 9.0 0.00 0.59 0.59 85 1001.7
20260507175141 53 244 3.0 7.0 0.00 0.59 0.59 86 1001.7
20260507174640 53 261 5.0 7.0 0.00 0.59 0.59 89 1001.7
20260507174139 52 266 4.0 9.0 0.00 0.59 0.59 89 1001.6
20260507173134 52 294 6.0 10.0 0.00 0.59 0.59 89 1001.6
20260507172132 52 197 4.0 12.0 0.00 0.59 0.59 90 1001.8
20260507171631 51 247 6.0 12.0 0.00 0.59 0.59 89 1001.9
20260507171128 52 272 4.0 9.0 0.00 0.59 0.59 91 1001.8
20260507170629 52 248 4.0 9.0 0.00 0.59 0.59 94 1001.9
20260507170125 51 234 6.0 7.0 0.00 0.59 0.59 93 1002.0
20260507165624 51 263 2.0 7.0 0.00 0.59 0.59 94 1001.4
20260507165123 50 206 2.0 9.0 0.00 0.59 0.59 92 1001.4
20260507163617 50 294 3.0 8.0 0.02 0.59 0.59 95 1001.6
20260507163109 49 233 3.0 13.0 0.02 0.59 0.59 95 1001.6
20260507162607 49 255 6.0 13.0 0.02 0.59 0.59 95 1002.5
20260507162104 49 264 5.0 14.0 0.03 0.59 0.59 94 1002.4
20260507161104 50 265 13.0 17.0 0.03 0.59 0.59 94 1002.6
20260507160602 51 286 12.0 16.0 0.05 0.59 0.59 96 1002.3
20260507160110 52 240 4.0 12.0 0.05 0.59 0.59 96 1000.9
20260507155600 52 248 9.0 12.0 0.06 0.59 0.59 96 1001.6
20260507154557 52 253 5.0 11.0 0.08 0.59 0.59 97 1000.9
20260507153554 52 200 4.0 12.0 0.08 0.56 0.56 97 1001.8
20260507153053 52 262 6.0 12.0 0.09 0.56 0.56 97 1002.3
20260507152555 53 262 6.0 10.0 0.09 0.56 0.56 97 1002.2
20260507152050 53 244 4.0 9.0 0.09 0.55 0.55 97 1001.8
20260507151550 53 246 4.0 9.0 0.11 0.55 0.55 97 1001.7
20260507151045 53 258 0.0 6.0 0.11 0.55 0.55 97 1001.6
20260507145543 53 233 4.0 6.0 0.15 0.53 0.53 97 1002.0
20260507145042 53 260 3.0 6.0 0.13 0.51 0.51 97 1002.1
20260507143539 53 232 2.0 4.0 0.18 0.48 0.48 97 1002.1
20260507143039 53 34 1.0 5.0 0.18 0.47 0.47 97 1001.9
20260507142033 52 224 2.0 6.0 0.21 0.46 0.46 97 1001.8
20260507141031 52 37 0.0 4.0 0.20 0.43 0.44 97 1002.2
20260507140531 52 303 0.0 4.0 0.20 0.42 0.42 97 1002.1
20260507140030 52 308 0.0 4.0 0.20 0.41 0.41 97 1002.7
20260507135531 52 293 3.0 5.0 0.20 0.38 0.38 97 1002.8
20260507135030 52 275 4.0 5.0 0.23 0.37 0.37 97 1002.9
20260507134527 52 299 4.0 5.0 0.20 0.34 0.35 96 1002.6
20260507134028 52 256 4.0 6.0 0.21 0.33 0.33 96 1003.0
20260507133525 52 266 3.0 6.0 0.19 0.30 0.30 96 1002.9
20260507133022 52 257 4.0 7.0 0.18 0.29 0.29 96 1002.8
20260507132520 52 243 3.0 9.0 0.16 0.26 0.27 96 1002.8
20260507132031 53 234 4.0 9.0 0.14 0.25 0.25 95 1003.3
20260507131512 53 234 4.0 11.0 0.13 0.24 0.24 95 1003.5
20260507131026 53 254 7.0 12.0 0.12 0.23 0.23 95 1003.4
20260507130511 54 240 9.0 12.0 0.11 0.22 0.22 95 1003.4
20260507130009 54 248 6.0 13.0 0.09 0.20 0.20 95 1003.6
20260507125508 54 276 4.0 15.0 0.06 0.17 0.17 95 1003.7
20260507125004 55 256 11.0 20.0 0.04 0.15 0.15 94 1003.6
20260507124504 55 253 9.0 20.0 0.02 0.13 0.13 93 1003.6
20260507124004 55 247 18.0 20.0 0.00 0.11 0.12 93 1003.3
20260507123503 55 264 7.0 14.0 0.00 0.11 0.11 92 1003.2
20260507123003 55 233 7.0 9.0 0.00 0.11 0.11 92 1003.0
20260507122501 55 222 5.0 9.0 0.00 0.11 0.11 92 1002.9
20260507121959 56 253 3.0 9.0 0.01 0.11 0.11 92 1002.9
20260507121459 56 239 4.0 11.0 0.01 0.11 0.11 93 1002.8
20260507120957 55 273 0.0 11.0 0.01 0.11 0.11 93 1002.6
20260507120453 56 186 3.0 6.0 0.01 0.11 0.11 93 1002.5
20260507115952 56 160 3.0 8.0 0.01 0.11 0.11 93 1002.4
20260507114950 56 247 7.0 13.0 0.01 0.11 0.11 93 1002.8
20260507113943 56 174 0.0 9.0 0.01 0.11 0.11 93 1003.0
20260507113439 56 254 5.0 9.0 0.01 0.11 0.11 93 1002.5
20260507112939 56 179 3.0 9.0 0.01 0.11 0.11 93 1002.7
20260507112438 56 171 2.0 9.0 0.01 0.11 0.11 92 1002.9
20260507111934 56 86 9.0 9.0 0.00 0.09 0.09 91 1002.7
20260507111432 56 86 9.0 9.0 0.00 0.09 0.09 91 1003.2
20260507110928 56 86 9.0 9.0 0.00 0.09 0.09 90 1003.5
20260507110425 56 86 9.0 9.0 0.00 0.09 0.09 90 1003.4
20260507105926 57 86 9.0 9.0 0.00 0.09 0.09 90 1003.3
20260507105425 57 86 9.0 9.0 0.00 0.09 0.09 90 1003.2
20260507103922 57 86 9.0 9.0 0.00 0.09 0.09 90 1002.6
20260507103410 57 86 9.0 9.0 0.00 0.09 0.09 90 1002.3
20260507102908 57 86 9.0 9.0 0.00 0.09 0.09 90 1002.2
20260507102407 57 86 9.0 9.0 0.00 0.09 0.09 90 1002.2
20260507101908 57 86 9.0 9.0 0.00 0.09 0.09 91 1002.5
20260507101404 57 86 9.0 9.0 0.00 0.09 0.09 92 1002.4
20260507100903 57 86 9.0 9.0 0.00 0.09 0.09 92 1002.2
20260507100402 56 86 9.0 9.0 0.00 0.09 0.09 92 1002.3
20260507095902 56 86 9.0 9.0 0.00 0.09 0.09 92 1002.5
20260507094858 56 86 9.0 9.0 0.00 0.09 0.09 93 1002.7
20260507094354 56 86 9.0 9.0 0.00 0.09 0.09 93 1002.8
20260507093852 56 86 9.0 9.0 0.00 0.09 0.09 93 1003.0
20260507093350 56 86 9.0 9.0 0.00 0.09 0.09 93 1002.8
20260507092351 57 86 9.0 9.0 0.01 0.09 0.09 93 1003.2
20260507091348 57 86 9.0 17.0 0.01 0.09 0.09 91 1002.8
20260507090846 57 139 7.0 12.0 0.01 0.09 0.09 90 1002.9
20260507090345 57 195 6.0 11.0 0.01 0.09 0.09 90 1002.9
20260507085846 57 192 5.0 13.0 0.01 0.09 0.09 91 1003.0
20260507084842 57 187 2.0 12.0 0.01 0.09 0.09 92 1003.0
20260507084339 58 282 7.0 12.0 0.01 0.09 0.09 93 1002.9
20260507083841 58 207 2.0 8.0 0.01 0.09 0.09 93 1003.0
20260507082839 58 205 3.0 11.0 0.01 0.09 0.09 93 1002.9
20260507082339 58 161 3.0 14.0 0.01 0.09 0.09 92 1003.3
20260507081840 58 172 5.0 14.0 0.01 0.09 0.09 92 1003.1
20260507080339 58 191 5.0 19.0 0.01 0.09 0.09 92 1002.9
20260507075838 58 194 6.0 19.0 0.01 0.09 0.09 91 1002.6
20260507074836 59 171 4.0 21.0 0.01 0.09 0.09 90 1002.9
20260507074335 58 189 9.0 20.0 0.01 0.09 0.09 90 1002.7
20260507073332 58 139 10.0 17.0 0.01 0.09 0.09 90 1002.6
20260507072830 58 178 8.0 16.0 0.01 0.09 0.09 90 1002.4
20260507072329 58 176 13.0 18.0 0.00 0.07 0.07 90 1002.4
20260507071840 58 139 7.0 20.0 0.00 0.07 0.07 90 1002.8
20260507071327 58 165 12.0 20.0 0.00 0.07 0.07 90 1003.1
20260507070830 58 151 7.0 21.0 0.00 0.07 0.07 89 1003.2
20260507070324 58 109 20.0 21.0 0.00 0.07 0.07 89 1003.3
20260507065835 58 171 13.0 19.0 0.00 0.07 0.07 88 1003.2
20260507065322 59 156 8.0 19.0 0.00 0.07 0.07 87 1003.3
20260507064820 59 192 11.0 21.0 0.00 0.07 0.07 87 1003.6
20260507064320 59 169 16.0 21.0 0.00 0.07 0.07 86 1003.6
20260507063321 59 162 8.0 18.0 0.00 0.07 0.07 86 1004.0
20260507062820 59 155 15.0 17.0 0.00 0.07 0.07 86 1004.3
20260507061821 59 152 4.0 21.0 0.00 0.07 0.07 86 1004.4
20260507061320 59 190 6.0 15.0 0.00 0.07 0.07 87 1004.2
20260507060821 59 165 11.0 18.0 0.01 0.07 0.07 87 1004.4
20260507060320 59 165 9.0 18.0 0.01 0.07 0.07 87 1004.4
20260507055820 58 145 7.0 19.0 0.02 0.07 0.07 88 1004.6
20260507055322 58 169 7.0 19.0 0.02 0.07 0.07 88 1004.5
20260507054819 58 196 7.0 17.0 0.02 0.07 0.07 88 1004.6
20260507054319 58 156 8.0 19.0 0.02 0.07 0.07 88 1004.6
20260507053817 58 115 7.0 19.0 0.02 0.07 0.07 88 1005.1
20260507053316 58 115 6.0 18.0 0.02 0.07 0.07 88 1005.0
20260507052328 58 168 15.0 21.0 0.03 0.07 0.07 89 1005.4
20260507051816 58 158 9.0 27.0 0.05 0.07 0.07 89 1005.7
20260507051315 58 183 8.0 27.0 0.05 0.07 0.07 89 1005.7
20260507050815 57 157 10.0 19.0 0.05 0.06 0.06 90 1005.8
20260507050315 58 159 11.0 18.0 0.06 0.06 0.06 90 1006.0
20260507045815 58 117 11.0 21.0 0.05 0.05 0.05 89 1006.3
20260507045314 58 126 16.0 21.0 0.05 0.05 0.05 89 1006.4
20260507044814 57 127 7.0 17.0 0.05 0.05 0.05 89 1006.4
20260507044312 57 134 5.0 17.0 0.05 0.05 0.05 89 1006.4
20260507043810 57 106 10.0 17.0 0.05 0.05 0.05 89 1006.3
20260507043310 57 122 11.0 17.0 0.05 0.05 0.05 89 1006.8
20260507042309 57 119 13.0 18.0 0.04 0.04 0.04 89 1007.2
20260507041810 58 94 11.0 15.0 0.02 0.02 0.02 89 1007.4
20260507041310 58 139 6.0 16.0 0.02 0.02 0.02 87 1007.1
20260507040810 58 152 11.0 18.0 0.01 0.01 0.01 86 1007.6
20260507035809 59 158 5.0 17.0 0.00 0.00 0.00 82 1008.0